| time (UTC) | temp C | wind direction | speed KPH | gust KPH | rain 1hr cm | rain 24hr cm | rain mn cm | humidity % | barometer mb |
| 20260504000029 | 15 | 252 | 0.0 | 3.2 | 0.00 | 0.00 | 0.00 | 40 | 1016.7 |
| 20260503235514 | 15 | 252 | 0.0 | 3.2 | 0.00 | 0.00 | 0.00 | 41 | 1017.0 |
| 20260503235012 | 16 | 252 | 0.0 | 3.2 | 0.00 | 0.00 | 0.00 | 39 | 1016.8 |
| 20260503234529 | 16 | 252 | 0.0 | 3.2 | 0.00 | 0.00 | 0.00 | 37 | 1016.8 |
| 20260503234012 | 16 | 360 | 1.6 | 3.2 | 0.00 | 0.00 | 0.00 | 36 | 1016.7 |
| 20260503233511 | 16 | 360 | 0.0 | 3.2 | 0.00 | 0.00 | 0.00 | 38 | 1016.8 |
| 20260503233029 | 16 | 360 | 0.0 | 3.2 | 0.00 | 0.00 | 0.00 | 35 | 1016.7 |
| 20260503232511 | 16 | 260 | 0.0 | 4.8 | 0.00 | 0.00 | 0.00 | 35 | 1016.7 |
| 20260503232010 | 16 | 279 | 1.6 | 6.4 | 0.00 | 0.00 | 0.00 | 34 | 1016.8 |
| 20260503231532 | 16 | 287 | 1.6 | 6.4 | 0.00 | 0.00 | 0.00 | 34 | 1016.7 |
| 20260503231013 | 16 | 297 | 0.0 | 8.0 | 0.00 | 0.00 | 0.00 | 34 | 1016.7 |
| 20260503230512 | 16 | 268 | 1.6 | 8.0 | 0.00 | 0.00 | 0.00 | 34 | 1016.7 |
| 20260503230032 | 16 | 275 | 1.6 | 8.0 | 0.00 | 0.00 | 0.00 | 33 | 1016.7 |
| 20260503225512 | 16 | 264 | 3.2 | 8.0 | 0.00 | 0.00 | 0.00 | 33 | 1016.7 |
| 20260503225012 | 16 | 281 | 1.6 | 8.0 | 0.00 | 0.00 | 0.00 | 33 | 1016.7 |
| 20260503224529 | 16 | 360 | 4.8 | 12.9 | 0.00 | 0.00 | 0.00 | 33 | 1016.7 |
| 20260503224012 | 16 | 360 | 4.8 | 12.9 | 0.00 | 0.00 | 0.00 | 32 | 1016.7 |
| 20260503223513 | 16 | 270 | 3.2 | 8.0 | 0.00 | 0.00 | 0.00 | 33 | 1016.5 |
| 20260503223028 | 16 | 314 | 1.6 | 11.3 | 0.00 | 0.00 | 0.00 | 32 | 1016.5 |
| 20260503222510 | 16 | 219 | 4.8 | 11.3 | 0.00 | 0.00 | 0.00 | 32 | 1016.6 |
| 20260503222010 | 16 | 301 | 1.6 | 11.3 | 0.00 | 0.00 | 0.00 | 33 | 1016.8 |
| 20260503221528 | 16 | 11 | 3.2 | 9.7 | 0.00 | 0.00 | 0.00 | 33 | 1016.8 |
| 20260503221010 | 16 | 304 | 3.2 | 9.7 | 0.00 | 0.00 | 0.00 | 32 | 1016.6 |
| 20260503220514 | 16 | 347 | 3.2 | 9.7 | 0.00 | 0.00 | 0.00 | 32 | 1016.6 |
| 20260503220032 | 16 | 234 | 4.8 | 9.7 | 0.00 | 0.00 | 0.00 | 32 | 1016.8 |
| 20260503215511 | 16 | 318 | 3.2 | 11.3 | 0.00 | 0.00 | 0.00 | 33 | 1016.7 |
| 20260503215011 | 16 | 285 | 3.2 | 12.9 | 0.00 | 0.00 | 0.00 | 32 | 1016.5 |
| 20260503214540 | 16 | 345 | 1.6 | 12.9 | 0.00 | 0.00 | 0.00 | 33 | 1016.6 |
| 20260503214012 | 16 | 281 | 4.8 | 11.3 | 0.00 | 0.00 | 0.00 | 32 | 1016.6 |
| 20260503213512 | 16 | 272 | 3.2 | 14.5 | 0.00 | 0.00 | 0.00 | 31 | 1016.6 |
| 20260503213030 | 16 | 261 | 3.2 | 14.5 | 0.00 | 0.00 | 0.00 | 32 | 1016.7 |
| 20260503212512 | 16 | 284 | 4.8 | 12.9 | 0.00 | 0.00 | 0.00 | 32 | 1016.5 |
| 20260503212013 | 16 | 360 | 3.2 | 14.5 | 0.00 | 0.00 | 0.00 | 31 | 1016.7 |
| 20260503211529 | 16 | 342 | 4.8 | 17.7 | 0.00 | 0.00 | 0.00 | 33 | 1016.6 |
| 20260503211011 | 16 | 284 | 8.0 | 19.3 | 0.00 | 0.00 | 0.00 | 32 | 1016.7 |
| 20260503210510 | 16 | 329 | 8.0 | 19.3 | 0.00 | 0.00 | 0.00 | 32 | 1016.7 |
| 20260503210032 | 16 | 254 | 4.8 | 14.5 | 0.00 | 0.00 | 0.00 | 32 | 1016.7 |
| 20260503205510 | 16 | 284 | 6.4 | 17.7 | 0.00 | 0.00 | 0.00 | 32 | 1016.7 |
| 20260503205013 | 16 | 302 | 6.4 | 17.7 | 0.00 | 0.00 | 0.00 | 31 | 1016.5 |
| 20260503204534 | 16 | 302 | 4.8 | 17.7 | 0.00 | 0.00 | 0.00 | 31 | 1016.4 |
| 20260503204011 | 16 | 316 | 6.4 | 19.3 | 0.00 | 0.00 | 0.00 | 31 | 1016.6 |
| 20260503203511 | 16 | 296 | 6.4 | 19.3 | 0.00 | 0.00 | 0.00 | 33 | 1016.5 |
| 20260503203039 | 16 | 57 | 6.4 | 17.7 | 0.00 | 0.00 | 0.00 | 32 | 1016.5 |
| 20260503202513 | 16 | 288 | 3.2 | 14.5 | 0.00 | 0.00 | 0.00 | 33 | 1016.5 |
| 20260503202012 | 15 | 279 | 6.4 | 20.9 | 0.00 | 0.00 | 0.00 | 32 | 1016.5 |
| 20260503201532 | 15 | 271 | 9.7 | 20.9 | 0.00 | 0.00 | 0.00 | 31 | 1016.6 |
| 20260503201014 | 15 | 348 | 6.4 | 20.9 | 0.00 | 0.00 | 0.00 | 32 | 1016.6 |
| 20260503200513 | 15 | 75 | 8.0 | 22.5 | 0.00 | 0.00 | 0.00 | 33 | 1016.8 |
| 20260503200051 | 15 | 340 | 8.0 | 22.5 | 0.00 | 0.00 | 0.00 | 32 | 1016.7 |
| 20260503195512 | 15 | 325 | 9.7 | 22.5 | 0.00 | 0.00 | 0.00 | 31 | 1016.6 |
| 20260503195010 | 15 | 69 | 3.2 | 22.5 | 0.00 | 0.00 | 0.00 | 34 | 1017.2 |
| 20260503194530 | 15 | 328 | 6.4 | 20.9 | 0.00 | 0.00 | 0.00 | 33 | 1017.2 |
| 20260503194010 | 15 | 315 | 4.8 | 20.9 | 0.00 | 0.00 | 0.00 | 33 | 1017.2 |
| 20260503193511 | 15 | 44 | 9.7 | 19.3 | 0.00 | 0.00 | 0.00 | 33 | 1017.1 |
| 20260503193036 | 15 | 256 | 8.0 | 22.5 | 0.00 | 0.00 | 0.00 | 33 | 1017.2 |
| 20260503192512 | 15 | 281 | 8.0 | 22.5 | 0.00 | 0.00 | 0.00 | 33 | 1017.3 |
| 20260503192013 | 15 | 59 | 4.8 | 17.7 | 0.00 | 0.00 | 0.00 | 34 | 1017.4 |
| 20260503191534 | 15 | 331 | 8.0 | 19.3 | 0.00 | 0.00 | 0.00 | 34 | 1017.4 |
| 20260503191013 | 15 | 346 | 6.4 | 24.1 | 0.00 | 0.00 | 0.00 | 35 | 1017.7 |
| 20260503190513 | 15 | 281 | 8.0 | 24.1 | 0.00 | 0.00 | 0.00 | 35 | 1017.7 |
| 20260503190036 | 15 | 335 | 6.4 | 20.9 | 0.00 | 0.00 | 0.00 | 34 | 1017.5 |
| 20260503185512 | 15 | 304 | 6.4 | 25.7 | 0.00 | 0.00 | 0.00 | 34 | 1017.6 |
| 20260503185013 | 15 | 290 | 6.4 | 25.7 | 0.00 | 0.00 | 0.00 | 35 | 1017.7 |
| 20260503184541 | 15 | 286 | 11.3 | 19.3 | 0.00 | 0.00 | 0.00 | 35 | 1017.6 |
| 20260503184013 | 15 | 352 | 9.7 | 22.5 | 0.00 | 0.00 | 0.00 | 35 | 1017.8 |
| 20260503183512 | 15 | 281 | 9.7 | 22.5 | 0.00 | 0.00 | 0.00 | 36 | 1017.7 |
| 20260503183040 | 15 | 333 | 4.8 | 20.9 | 0.00 | 0.00 | 0.00 | 35 | 1017.9 |
| 20260503182512 | 14 | 318 | 6.4 | 19.3 | 0.00 | 0.00 | 0.00 | 37 | 1017.9 |
| 20260503182015 | 14 | 305 | 9.7 | 22.5 | 0.00 | 0.00 | 0.00 | 37 | 1017.8 |
| 20260503181547 | 14 | 211 | 11.3 | 24.1 | 0.00 | 0.00 | 0.00 | 36 | 1017.8 |
| 20260503181013 | 14 | 252 | 4.8 | 24.1 | 0.00 | 0.00 | 0.00 | 37 | 1017.8 |
| 20260503180512 | 14 | 9 | 9.7 | 22.5 | 0.00 | 0.00 | 0.00 | 37 | 1017.7 |
| 20260503180044 | 14 | 268 | 9.7 | 17.7 | 0.00 | 0.00 | 0.00 | 38 | 1017.7 |
| 20260503175513 | 13 | 307 | 6.4 | 20.9 | 0.00 | 0.00 | 0.00 | 38 | 1017.8 |
| 20260503175012 | 13 | 320 | 8.0 | 19.3 | 0.00 | 0.00 | 0.00 | 38 | 1017.8 |
| 20260503174545 | 13 | 278 | 6.4 | 22.5 | 0.00 | 0.00 | 0.00 | 40 | 1018.0 |
| 20260503174014 | 13 | 285 | 9.7 | 22.5 | 0.00 | 0.00 | 0.00 | 39 | 1017.9 |
| 20260503173513 | 13 | 322 | 6.4 | 22.5 | 0.00 | 0.00 | 0.00 | 39 | 1018.1 |
| 20260503173046 | 13 | 289 | 12.9 | 20.9 | 0.00 | 0.00 | 0.00 | 39 | 1017.9 |
| 20260503172513 | 13 | 315 | 9.7 | 24.1 | 0.00 | 0.00 | 0.00 | 39 | 1018.2 |
| 20260503172011 | 13 | 25 | 9.7 | 24.1 | 0.00 | 0.00 | 0.00 | 38 | 1018.2 |
| 20260503171533 | 13 | 325 | 6.4 | 16.1 | 0.00 | 0.00 | 0.00 | 40 | 1018.3 |
| 20260503171013 | 13 | 325 | 8.0 | 20.9 | 0.00 | 0.00 | 0.00 | 39 | 1018.3 |
| 20260503170512 | 13 | 327 | 9.7 | 20.9 | 0.00 | 0.00 | 0.00 | 40 | 1018.5 |
| 20260503151013 | 12 | 258 | 11.3 | 19.3 | 0.00 | 0.03 | 0.00 | 42 | 1018.4 |
| 20260503150517 | 12 | 250 | 11.3 | 24.1 | 0.00 | 0.03 | 0.00 | 41 | 1018.5 |
| 20260503131012 | 11 | 286 | 6.4 | 17.7 | 0.00 | 0.03 | 0.00 | 48 | 1017.9 |
| 20260503130511 | 11 | 344 | 8.0 | 20.9 | 0.00 | 0.03 | 0.00 | 48 | 1018.0 |
| 20260503110513 | -17 | 40.2 | 0.0 | 0.00 | 0.03 | 0.00 | 1017.0 | ||
| 20260503081556 | 12 | 22 | 8.0 | 20.9 | 0.00 | 0.03 | 0.00 | 60 | 1014.2 |
| 20260503081016 | 12 | 343 | 40.2 | 17.7 | 0.00 | 0.03 | 0.00 | 60 | 1014.0 |
| 20260503080514 | 12 | 360 | 11.3 | 17.7 | 0.00 | 0.03 | 0.00 | 60 | 1014.0 |
| 20260503072516 | 12 | 30 | 3.2 | 12.9 | 0.00 | 0.03 | 0.00 | 60 | 1013.5 |
| 20260503072016 | 12 | 296 | 4.8 | 17.7 | 0.00 | 0.03 | 0.00 | 59 | 1013.5 |
| 20260503071557 | 12 | 294 | 8.0 | 17.7 | 0.00 | 0.03 | 0.00 | 60 | 1013.5 |
| 20260503071016 | 12 | 331 | 3.2 | 19.3 | 0.00 | 0.03 | 0.00 | 60 | 1013.4 |
| 20260503070518 | 12 | 277 | 6.4 | 19.3 | 0.00 | 0.03 | 0.00 | 61 | 1013.3 |
| 20260503060104 | 11 | 269 | 0.0 | 3.2 | 0.00 | 0.03 | 0.00 | 64 | 1013.0 |
| 20260503055016 | 12 | 268 | 0.0 | 4.8 | 0.00 | 0.03 | 0.00 | 63 | 1012.9 |
| 20260503054553 | 12 | 329 | 0.0 | 3.2 | 0.00 | 0.03 | 0.00 | 63 | 1012.9 |
| 20260503054016 | 12 | 24 | 0.0 | 4.8 | 0.00 | 0.03 | 0.00 | 63 | 1013.0 |
| 20260503053517 | 12 | 307 | 1.6 | 4.8 | 0.00 | 0.03 | 0.00 | 62 | 1013.0 |
| 20260503053101 | 12 | 274 | 0.0 | 8.0 | 0.00 | 0.03 | 0.00 | 61 | 1013.2 |
| 20260503052515 | 12 | 348 | 0.0 | 8.0 | 0.00 | 0.03 | 0.00 | 61 | 1013.2 |
| 20260503052017 | 12 | 300 | 0.0 | 4.8 | 0.00 | 0.03 | 0.00 | 61 | 1013.3 |
| 20260503051550 | 12 | 327 | 1.6 | 4.8 | 0.00 | 0.03 | 0.00 | 60 | 1013.2 |
| 20260503051020 | 12 | 293 | 0.0 | 4.8 | 0.00 | 0.03 | 0.00 | 60 | 1013.0 |
| 20260503050519 | 12 | 311 | 0.0 | 4.8 | 0.00 | 0.03 | 0.00 | 60 | 1012.9 |
| 20260503050058 | 12 | 302 | 1.6 | 11.3 | 0.00 | 0.03 | 0.00 | 59 | 1013.0 |
| 20260503045519 | 12 | 324 | 0.0 | 11.3 | 0.00 | 0.03 | 0.00 | 59 | 1013.1 |
| 20260503045015 | 12 | 287 | 1.6 | 6.4 | 0.00 | 0.03 | 0.00 | 59 | 1013.1 |
| 20260503044612 | 12 | 317 | 1.6 | 6.4 | 0.00 | 0.03 | 0.00 | 59 | 1013.0 |
| 20260503044017 | 12 | 342 | 0.0 | 4.8 | 0.00 | 0.03 | 0.00 | 59 | 1013.1 |
| 20260503043516 | 12 | 349 | 1.6 | 4.8 | 0.00 | 0.03 | 0.00 | 58 | 1013.1 |
| 20260503043028 | 12 | 315 | 0.0 | 6.4 | 0.00 | 0.03 | 0.00 | 59 | 1013.1 |
| 20260503042507 | 12 | 289 | 1.6 | 6.4 | 0.00 | 0.03 | 0.00 | 59 | 1013.0 |
| 20260503042012 | 12 | 352 | 0.0 | 4.8 | 0.00 | 0.03 | 0.00 | 58 | 1013.2 |
| 20260503041526 | 12 | 304 | 0.0 | 8.0 | 0.00 | 0.03 | 0.00 | 58 | 1013.2 |
| 20260503041010 | 12 | 352 | 3.2 | 8.0 | 0.00 | 0.03 | 0.00 | 57 | 1013.2 |
| 20260503040511 | 12 | 27 | 1.6 | 8.0 | 0.00 | 0.03 | 0.00 | 58 | 1013.1 |
| 20260503040028 | 12 | 308 | 1.6 | 11.3 | 0.00 | 0.03 | 0.00 | 58 | 1013.1 |
| 20260503035511 | 12 | 262 | 0.0 | 9.7 | 0.00 | 0.03 | 0.03 | 59 | 1013.3 |
| 20260503035007 | 12 | 323 | 3.2 | 9.7 | 0.00 | 0.03 | 0.03 | 60 | 1013.2 |
| 20260503034532 | 12 | 320 | 0.0 | 6.4 | 0.00 | 0.03 | 0.03 | 59 | 1013.2 |
| 20260503034010 | 12 | 304 | 0.0 | 6.4 | 0.00 | 0.03 | 0.03 | 59 | 1013.3 |
| 20260503033514 | 12 | 291 | 0.0 | 3.2 | 0.00 | 0.03 | 0.03 | 59 | 1013.1 |
| 20260503033036 | 12 | 275 | 0.0 | 3.2 | 0.00 | 0.03 | 0.03 | 59 | 1013.1 |
| 20260503032507 | 12 | 317 | 0.0 | 6.4 | 0.00 | 0.03 | 0.03 | 60 | 1013.1 |
| 20260503032009 | 12 | 327 | 0.0 | 6.4 | 0.00 | 0.03 | 0.03 | 59 | 1013.0 |
| 20260503031530 | 13 | 343 | 0.0 | 8.0 | 0.00 | 0.03 | 0.03 | 60 | 1012.9 |
| 20260503031012 | 13 | 350 | 1.6 | 8.0 | 0.00 | 0.03 | 0.03 | 59 | 1012.8 |
| 20260503030510 | 13 | 9 | 3.2 | 8.0 | 0.00 | 0.03 | 0.03 | 60 | 1013.0 |
| 20260503030047 | 13 | 329 | 1.6 | 8.0 | 0.00 | 0.03 | 0.03 | 59 | 1013.1 |
| 20260503025511 | 13 | 348 | 1.6 | 8.0 | 0.00 | 0.03 | 0.03 | 60 | 1013.0 |
| 20260503025012 | 13 | 352 | 1.6 | 6.4 | 0.00 | 0.03 | 0.03 | 59 | 1013.1 |
| 20260503024533 | 13 | 296 | 1.6 | 6.4 | 0.00 | 0.03 | 0.03 | 60 | 1013.4 |
| 20260503024013 | 13 | 336 | 3.2 | 6.4 | 0.00 | 0.03 | 0.03 | 59 | 1013.4 |
| 20260503023511 | 13 | 294 | 1.6 | 6.4 | 0.00 | 0.03 | 0.03 | 59 | 1013.2 |
| 20260503023033 | 13 | 278 | 1.6 | 6.4 | 0.00 | 0.03 | 0.03 | 59 | 1013.2 |
| 20260503022510 | 13 | 334 | 0.0 | 4.8 | 0.00 | 0.03 | 0.03 | 59 | 1013.2 |
| 20260503022009 | 13 | 336 | 3.2 | 4.8 | 0.00 | 0.03 | 0.03 | 58 | 1013.3 |
| 20260503021528 | 13 | 9 | 1.6 | 6.4 | 0.00 | 0.03 | 0.03 | 58 | 1013.2 |
| 20260503021011 | 13 | 275 | 1.6 | 9.7 | 0.00 | 0.03 | 0.03 | 57 | 1013.2 |
| 20260503020511 | 13 | 294 | 1.6 | 9.7 | 0.00 | 0.03 | 0.03 | 57 | 1013.1 |
| 20260503020028 | 13 | 331 | 1.6 | 11.3 | 0.00 | 0.03 | 0.03 | 57 | 1013.2 |
| 20260503015510 | 13 | 304 | 1.6 | 8.0 | 0.00 | 0.03 | 0.03 | 57 | 1013.2 |
| 20260503015013 | 13 | 325 | 1.6 | 9.7 | 0.00 | 0.03 | 0.03 | 57 | 1013.3 |
| 20260503014530 | 13 | 33 | 1.6 | 9.7 | 0.00 | 0.03 | 0.03 | 56 | 1013.1 |
| 20260503014010 | 13 | 349 | 1.6 | 11.3 | 0.00 | 0.03 | 0.03 | 56 | 1013.2 |
| 20260503013511 | 13 | 345 | 0.0 | 11.3 | 0.00 | 0.03 | 0.03 | 56 | 1013.2 |
| 20260503013028 | 13 | 309 | 1.6 | 8.0 | 0.00 | 0.03 | 0.03 | 55 | 1013.0 |
| 20260503012508 | 13 | 302 | 3.2 | 8.0 | 0.00 | 0.03 | 0.03 | 55 | 1013.0 |
| 20260503012009 | 13 | 352 | 1.6 | 6.4 | 0.00 | 0.03 | 0.03 | 55 | 1013.0 |
| 20260503011528 | 13 | 340 | 3.2 | 8.0 | 0.00 | 0.03 | 0.03 | 55 | 1012.8 |
| 20260503011013 | 13 | 9 | 0.0 | 8.0 | 0.00 | 0.03 | 0.03 | 55 | 1012.5 |
| 20260503010514 | 13 | 321 | 3.2 | 8.0 | 0.00 | 0.03 | 0.03 | 54 | 1012.5 |
| 20260503010031 | 13 | 44 | 3.2 | 8.0 | 0.00 | 0.03 | 0.03 | 53 | 1012.8 |
| 20260503005511 | 13 | 296 | 1.6 | 12.9 | 0.00 | 0.03 | 0.03 | 54 | 1012.8 |
| 20260503005011 | 13 | 338 | 3.2 | 12.9 | 0.00 | 0.03 | 0.03 | 53 | 1012.7 |
| 20260503004530 | 13 | 304 | 1.6 | 11.3 | 0.00 | 0.03 | 0.03 | 53 | 1012.7 |
| 20260503004012 | 13 | 352 | 1.6 | 9.7 | 0.00 | 0.03 | 0.03 | 53 | 1012.5 |
| 20260503003511 | 13 | 341 | 1.6 | 14.5 | 0.00 | 0.03 | 0.03 | 52 | 1012.3 |
| 20260503003032 | 13 | 326 | 4.8 | 14.5 | 0.00 | 0.03 | 0.03 | 51 | 1012.6 |
| 20260503002510 | 13 | 12 | 1.6 | 8.0 | 0.00 | 0.03 | 0.03 | 52 | 1012.4 |
| 20260503002012 | 13 | 299 | 1.6 | 9.7 | 0.00 | 0.03 | 0.03 | 52 | 1012.4 |
| 20260503001528 | 13 | 350 | 1.6 | 14.5 | 0.00 | 0.03 | 0.03 | 52 | 1012.2 |
| 20260503001012 | 13 | 300 | 4.8 | 14.5 | 0.00 | 0.03 | 0.03 | 54 | 1012.3 |
| 20260503000509 | 13 | 352 | 3.2 | 14.5 | 0.00 | 0.03 | 0.03 | 55 | 1012.1 |